P/2019 X1 ( Pruyne )

Japanese version
Home page
Updated on March 8, 2020

---------------------------------------------------------------------

* Profile

Discovery Date December 2, 2019
Magnitude 19.4 mag
Discoverer Theodore A. Pruyne (Mt. Lemmon Survey)

* Pictures

* Orbital Elements

Epoch 2019 July 16.0 TT = JDT 2458680.5
T 2019 July 20.50472 TT                                 Bell
q   4.3037128            (2000.0)            P               Q
n   0.06419059     Peri.   36.67929     +0.17325386     -0.97717251
a   6.1776288      Node    43.72648     +0.85606874     +0.08769151
e   0.3033390      Incl.   10.24609     +0.48695936     +0.19350474
P  15.4
From 84 observations 2019 Nov. 29-2020 Jan. 6, mean residual 0".4.

* Magnitudes Graph

        m1 = 10.0 + 5 log d + 10.0 log r

---------------------------------------------------------------------

The orbital elements are published on M.P.E.C. 2020-E26.
The magnitudes graphs are made with Comet for Windows.

---------------------------------------------------------------------

Copyright(C) Seiichi Yoshida (comet@aerith.net). All rights reserved.